EO-80
1 40032U 14033Y 15127.66414205 .00001536 00000-0 17955-3 0 9999
2 40032 097.9560 027.6509 0011464 316.9929 043.0394 14.86554400 47765
VELOX-1
1 40057U 14034E 15127.85939882 .00001709 00000-0 25769-3 0 9995
2 40057 098.2178 205.3014 0011525 015.5876 344.5684 14.75671824 45934
DAURIA DX 1
1 40071U 14037C 15127.70774078 .00000840 00000-0 11768-3 0 9991
2 40071 098.3595 197.4526 0008974 019.0549 341.1003 14.80315747 44801
UKUBE-1
1 40074U 14037F 15127.79218233 .00001756 00000-0 22840-3 0 9999
2 40074 098.3606 198.1949 0005241 032.2672 327.8860 14.82026503 44850
HODOYOSHI-1
1 40299U 14070B 15127.77317888 .00003468 00000-0 16874-3 0 9991
2 40299 097.4573 209.7977 0011448 273.3484 182.6875 15.19004383 27685
CHUBUSAT-1
1 40300U 14070C 15127.80979975 .00004080 00000-0 20733-3 0 9999
2 40300 097.4545 209.2417 0020854 274.5489 180.8848 15.17251837 27653
QSAT-EOS
1 40301U 14070D 15127.76511837 .00007111 00000-0 36584-3 0 9993
2 40301 097.4506 208.6193 0030982 274.5274 181.8447 15.16326646 27612
TSUBAME
1 40302U 14070E 15127.78726441 .00003391 00000-0 19440-3 0 9993
2 40302 097.4480 207.7798 0041837 277.6635 179.0310 15.12523371 27563
FIREBIRD FU3
1 40377U 15003B 15127.81477533 .00011677 00000-0 58716-3 0 9996
2 40377 099.1210 153.8279 0160717 025.9273 334.9932 15.06805061 14471
FIREBIRD FU4
1 40378U 15003C 15127.81316137 .00011625 00000-0 58381-3 0 9990
2 40378 099.1197 153.8281 0160911 025.8686 335.0472 15.06825136 14478
GRIFEX
1 40379U 15003D 15127.56719940 .00008886 00000-0 45394-3 0 9997
2 40379 099.1211 153.4985 0161641 028.2258 332.7607 15.06277430 14434
LAMBDA-SAT
1 40458U 98067GB 15127.83347472 .00874152 32901-3 26276-2 0 9995
2 40458 051.6346 279.2741 0017411 300.2413 060.3085 15.91418768 19807
/EX
1
0
SB KEPS @ AMSAT $ORB15120.N
2Line Orbital Elements 15120.AMSAT
HR AMSAT ORBITAL ELEMENTS FOR AMATEUR SATELLITES IN NASA FORMAT
FROM WA5QGD FORT WORTH,TX April 30, 2015
BID: ORB15120.N
DECODE 2-LINE ELSETS WITH THE FOLLOWING KEY:
1 AAAAAU 00 0 0 BBBBB.BBBBBBBB .CCCCCCCC 00000-0 00000-0 0 DDDZ
2 AAAAA EEE.EEEE FFF.FFFF GGGGGGG HHH.HHHH III.IIII JJ.JJJJJJJJKKKKKZ
KEY: A-CATALOGNUM B-EPOCHTIME C-DECAY D-ELSETNUM E-INCLINATION F-RAAN
G-ECCENTRICITY H-ARGPERIGEE I-MNANOM J-MNMOTION K-ORBITNUM Z-CHECKSUM
TO ALL RADIO AMATEURS BT
AO-07
1 07530U 74089B 15120.52806388 -.00000027 00000-0 10619-3 0 9992
2 07530 101.5165 097.4318 0012314 037.7341 075.5180 12.53613971851282
FO-29
1 24278U 96046B 15119.86521420 .00000021 00000-0 57509-4 0 9996
2 24278 098.5358 095.2060 0350177 195.9466 228.5479 13.53050319923492
SO-33
1 25509U 98061B 15119.49301061 .00000504 00000-0 87937-4 0 9993
2 25509 031.4310 167.6272 0347963 006.4374 354.0570 14.29983422862444
RS-22
1 27939U 03042A 15120.50563512 .00000891 00000-0 17076-3 0 9997
2 27939 097.8355 284.5352 0012855 175.2531 184.8789 14.65986036619204
HO-68
1 36122U 09072B 15120.81573917 -.00000060 00000-0 -43517-4 0 9994
2 36122 100.1998 167.3015 0007271 225.6480 134.4022 13.16326301258222
AO-73
1 39444U 13066AE 15119.75893208 .00001681 00000-0 22259-3 0 9998
2 39444 097.7345 184.2880 0058615 294.0854 065.4234 14.80052836 76250
EO-79
1 40025U 14033R 15120.77864270 .00002832 00000-0 32220-3 0 9999
2 40025 097.9561 020.9689 0012911 346.7240 013.3607 14.86978376 46755
UO-11
1 14781U 84021B 15119.77090582 .00000783 00000-0 10441-3 0 9992
2 14781 097.8063 178.0345 0007633 221.5105 138.5529 14.82330468674851
AO-16
1 20439U 90005D 15120.08685396 .00000146 00000-0 69905-4 0 9990
2 20439 098.5380 056.9952 0009889 307.2126 119.2321 14.32530657319855
LO-19
1 20442U 90005G 15119.38770984 .00000129 00000-0 63245-4 0 9995
2 20442 098.5090 056.0109 0010718 295.9590 064.0489 14.32723834319957
AO-27
1 22825U 93061C 15119.91794182 .00000119 00000-0 63561-4 0 9992
2 22825 098.7044 070.0259 0009597 089.9817 311.2949 14.29869737126046
IO-26
1 22826U 93061D 15120.39697968 .00000120 00000-0 63572-4 0 9995
2 22826 098.6988 070.6781 0010140 081.6256 278.6075 14.30185541126256
GO-32
1 25397U 98043D 15120.09861291 .00000060 00000-0 45197-4 0 9991
2 25397 098.5156 072.0596 0002439 097.8033 323.0025 14.23539230872957
NO-44
1 26931U 01043C 15119.48317427 .00000142 00000-0 86508-4 0 9990
2 26931 067.0510 302.7247 0005998 264.5707 095.4710 14.30300190708832
SO-50
1 27607U 02058C 15120.56759642 .00000450 00000-0 63761-4 0 9996
2 27607 064.5576 344.1989 0079054 297.5638 061.7947 14.74673845664267
CO-55
1 27844U 03031E 15119.51459097 .00000304 00000-0 15810-3 0 9994
2 27844 098.6962 128.7350 0010951 082.8214 070.5278 14.21777832613522
CO-57
1 27848U 03031J 15120.50737919 .00000238 00000-0 12873-3 0 9993
2 27848 098.7059 129.5961 0010863 086.9609 064.7003 14.21428506613573
AO-51
1 28375U 04025K 15120.07412601 .00000208 00000-0 74097-4 0 9997
2 28375 098.2893 061.9102 0083945 114.5323 246.4647 14.41639573569560
CP3
1 31129U 07012N 15120.15702726 .00001118 00000-0 24959-3 0 9998
2 31129 097.9762 088.0180 0098256 103.2372 320.8038 14.55706826426135
CO-65
1 32785U 08021C 15120.19848288 .00001534 00000-0 17817-3 0 9993
2 32785 097.6540 165.5207 0012539 219.6934 216.3961 14.86721650379106
PRISM
1 33493U 09002B 15120.78168926 .00005986 00000-0 58091-3 0 9993
2 33493 098.2539 315.8835 0017354 123.2497 237.0316 14.92939861339505
SOHLA-1
1 33496U 09002E 15120.42885674 .00000456 00000-0 82043-4 0 9995
2 33496 098.2045 247.9260 0005441 324.9659 075.4822 14.71318472336151
TISAT-1
1 36799U 10035E 15120.49348161 .00002580 00000-0 28517-3 0 9999
2 36799 098.0132 220.3305 0012897 009.7813 121.4208 14.88248367259868
STUDSAT
1 36801U 10035G 15120.33187164 .00018554 00000-0 11352-2 0 9996
2 36801 098.0565 237.1979 0005227 295.7201 124.6843 15.10274031260744
ALMASAT-1
1 38078U 12006B 15120.88981348 .00036018 35365-5 60669-3 0 9998
2 38078 069.4600 359.4882 0491439 322.5721 034.2089 14.76443986168052
CUBEBUG-1
1 39153U 13018D 15120.46166268 .00001427 00000-0 19939-3 0 9990
2 39153 098.0175 204.9655 0018307 050.9657 309.3180 14.79097795108422
ESTCUBE-1
1 39161U 13021C 15120.79404952 .00001807 00000-0 30198-3 0 9996
2 39161 098.0712 204.1383 0010956 103.2040 257.0343 14.71066534106278
DUCHIFAT-1
1 40021U 14033M 15120.42754977 .00004087 00000-0 45321-3 0 9999
2 40021 097.9578 020.8779 0013673 348.3378 011.7462 14.87774178 46705
NANOSATCBR1
1 40024U 14033Q 15120.47207112 .00003324 00000-0 37336-3 0 9991
2 40024 097.9546 020.7524 0012729 348.3780 011.7125 14.87390373 46705
DTUSAT-2
1 40030U 14033W 15120.65723257 .00002828 00000-0 32484-3 0 9998
2 40030 097.9542 020.6238 0011760 340.7090 019.3639 14.86595407 46723
ANTELSAT
1 40034U 14033AA 15120.75196083 .00001958 00000-0 30757-3 0 9998
2 40034 097.9481 013.8310 0058902 272.1614 087.2825 14.72590656 46315
MET-2/21
1 22782U 93055A 15119.85927317 .00000063 00000-0 43414-4 0 9991
2 22782 082.5470 282.0166 0023629 096.6545 010.6767 13.83767362 93916
OKEAN-4
1 23317U 94066A 15119.84481578 .00001158 00000-0 12740-3 0 9995
2 23317 082.5357 130.8373 0021585 127.1924 002.5246 14.86566960110136
NOAA-14
1 23455U 94089A 15120.51628620 .00000030 00000-0 38529-4 0 9992
2 23455 098.7527 202.9465 0008933 210.3373 266.1983 14.14036941 48795
NOAA-15
1 25338U 98030A 15120.50133940 .00000181 00000-0 95272-4 0 9994
2 25338 098.7718 119.1083 0009683 311.6024 048.4325 14.25608869882046
RESURS
1 25394U 98043A 15120.52656267 .00000003 00000-0 19441-4 0 9991
2 25394 098.4607 077.3399 0002482 069.8526 043.6811 14.24455417873490
